Weather History for Marshfield, MA

Change the Weather History Date:

Monday, January 6, 2014

  Actual Average (KPYM) Record (KPYM)
Temperature  
Mean Temperature 44 °F -  
Max Temperature 57 °F 37 °F 62 °F (2007)
Min Temperature 32 °F 18 °F -5 °F (1981)
Degree Days  
Heating Degree Days 20    
Moisture  
Dew Point 44 °F    
Average Humidity 90    
Maximum Humidity 100    
Minimum Humidity 60    
Precipitation  
Precipitation 0.10 in - - ()
Sea Level Pressure  
Sea Level Pressure 29.52 in    
Wind  
Wind Speed 10 mph (South)    
Max Wind Speed 17 mph    
Max Gust Speed 31 mph    
Visibility 5 miles    
Events Rain    
Averages and records for this station are not official NWS values.
T = Trace of Precipitation, MM = Missing Value Source: NWS Daily Summary

Daily Weather History Graph

Daily Weather History Graph

Search for Another Location

Airport:

Trip Planner

Search our weather history database for the weather conditions in past years. The results will help you decide how hot, cold, wet, or windy it might be!

Date:

Astronomy

Jan. 06, 2014 Rise Set
Actual Time 7:11 AM EST 4:26 PM EST
Civil Twilight 6:39 AM EST 4:57 PM EST
Nautical Twilight 6:04 AM EST 5:32 PM EST
Astronomical Twilight 5:30 AM EST 6:06 PM EST
Moon 10:18 AM EST (1/6) 11:03 PM EST (1/6)
Length of Visible Light 10h 18m
Length of Day
9h 15m
Waxing Crescent, 34% of the Moon is Illuminated
Jan 6
Waxing Crescent
Jan 7
First Quarter
Jan 15
Full
Jan 24
Last Quarter
Jan 30
New

Hourly Weather History & Observations

Time (EST) Temp. Windchill Dew Point Humidity Pressure Visibility Wind Dir Wind Speed Gust Speed Precip Events Conditions
12:15 AM 44.6 °F 38.4 °F 44.6 °F 100% 29.94 in 0.5 mi SE 12.7 mph 17.3 mph 0.01 in Rain Light Rain
12:35 AM 44.6 °F 38.8 °F 44.6 °F 100% 29.92 in 0.5 mi SE 11.5 mph 18.4 mph 0.01 in   Drizzle
12:55 AM 44.6 °F 38.4 °F 44.6 °F 100% 29.90 in 0.5 mi SE 12.7 mph 17.3 mph 0.03 in   Overcast
1:15 AM 44.6 °F 39.7 °F 44.6 °F 100% 29.88 in 0.5 mi SE 9.2 mph - 0.01 in   Drizzle
1:35 AM 44.6 °F 39.7 °F 44.6 °F 100% 29.87 in 0.2 mi SE 9.2 mph 17.3 mph 0.01 in   Drizzle
1:55 AM 46.4 °F 42.4 °F 46.4 °F 100% 29.87 in 0.2 mi SE 8.1 mph - 0.01 in   Drizzle
2:15 AM 48.2 °F - 48.2 °F 100% 29.85 in 0.2 mi SE 9.2 mph - N/A   Drizzle
4:15 AM 46.4 °F 42.4 °F 46.4 °F 100% 29.74 in 0.2 mi SE 8.1 mph - N/A   Drizzle
4:35 AM 46.4 °F 42.4 °F 46.4 °F 100% 29.72 in 0.2 mi SE 8.1 mph - N/A   Drizzle
4:55 AM 46.4 °F 43.5 °F 46.4 °F 100% 29.71 in 0.2 mi SE 5.8 mph - N/A   Drizzle
5:15 AM 46.4 °F 41.5 °F 46.4 °F 100% 29.70 in 0.2 mi SE 10.4 mph - 0.01 in Rain Light Rain
5:35 AM 46.4 °F 42.9 °F 46.4 °F 100% 29.68 in 0.2 mi SE 6.9 mph - 0.02 in   Drizzle
5:55 AM 46.4 °F 42.4 °F 46.4 °F 100% 29.67 in 0.2 mi ESE 8.1 mph - 0.02 in   Drizzle
6:15 AM 46.4 °F 41.5 °F 46.4 °F 100% 29.66 in 0.2 mi ESE 10.4 mph - N/A   Drizzle
6:35 AM 46.4 °F 42.4 °F 46.4 °F 100% 29.65 in 0.2 mi SE 8.1 mph - N/A   Drizzle
6:55 AM 46.4 °F 42.4 °F 46.4 °F 100% 29.64 in 0.2 mi ESE 8.1 mph - N/A   Drizzle
7:15 AM 46.4 °F 42.4 °F 46.4 °F 100% 29.61 in 0.2 mi ESE 8.1 mph - N/A   Drizzle
7:35 AM 46.4 °F 42.9 °F 46.4 °F 100% 29.60 in 0.2 mi ESE 6.9 mph - N/A   Drizzle
7:55 AM 48.2 °F - 48.2 °F 100% 29.59 in 0.2 mi SE 5.8 mph - 0.01 in Rain Light Rain
8:15 AM 55.4 °F - 55.4 °F 100% 29.57 in 0.5 mi SSE 12.7 mph 18.4 mph N/A   Drizzle
8:35 AM 55.4 °F - 55.4 °F 100% 29.56 in 0.8 mi SSE 10.4 mph 21.9 mph N/A   Drizzle
8:55 AM 55.4 °F - 55.4 °F 100% 29.56 in 0.8 mi SSE 9.2 mph 18.4 mph N/A   Drizzle
9:15 AM 55.4 °F - 55.4 °F 100% 29.54 in 0.2 mi SSE 11.5 mph 24.2 mph N/A   Drizzle
9:35 AM 55.4 °F - 55.4 °F 100% 29.51 in 0.2 mi SSE 12.7 mph 20.7 mph N/A   Drizzle
9:55 AM 55.4 °F - 55.4 °F 100% 29.50 in 0.2 mi SSE 11.5 mph 19.6 mph N/A   Drizzle
10:15 AM 57.2 °F - 57.2 °F 100% 29.48 in 0.8 mi South 17.3 mph 26.5 mph N/A   Drizzle
10:35 AM 55.4 °F - 55.4 °F 100% 29.46 in 0.5 mi South 15.0 mph 23.0 mph N/A   Drizzle
10:55 AM 57.2 °F - 57.2 °F 100% 29.44 in 0.5 mi South 16.1 mph 29.9 mph N/A   Drizzle
11:15 AM 57.2 °F - 57.2 °F 100% 29.41 in 1.0 mi South 16.1 mph 25.3 mph N/A   Drizzle
11:35 AM 57.2 °F - 57.2 °F 100% 29.40 in 3.0 mi South 12.7 mph 23.0 mph 0.01 in   Drizzle
11:55 AM 57.2 °F - 57.2 °F 100% 29.39 in 10.0 mi South 15.0 mph 31.1 mph 0.01 in Rain Light Rain
12:15 PM 57.2 °F - 57.2 °F 100% 29.38 in 5.0 mi South 8.1 mph 28.8 mph N/A   Drizzle
12:35 PM 57.2 °F - 57.2 °F 100% 29.37 in 4.0 mi SSW 12.7 mph 24.2 mph N/A   Light Drizzle
12:55 PM 57.2 °F - 57.2 °F 100% 29.36 in 10.0 mi SSW 13.8 mph 25.3 mph N/A   Light Drizzle
1:15 PM 57.2 °F - 57.2 °F 100% 29.34 in 10.0 mi SSW 10.4 mph 19.6 mph N/A   Light Drizzle
1:35 PM 57.2 °F - 55.4 °F 94% 29.32 in 10.0 mi South 11.5 mph 17.3 mph N/A   Partly Cloudy
1:55 PM 57.2 °F - 53.6 °F 88% 29.32 in 10.0 mi South 8.1 mph - N/A   Clear
2:15 PM 55.4 °F - 53.6 °F 94% 29.32 in 10.0 mi South 10.4 mph 21.9 mph N/A   Clear
2:35 PM 55.4 °F - 51.8 °F 88% 29.32 in 10.0 mi South 11.5 mph 18.4 mph N/A   Scattered Clouds
2:55 PM 55.4 °F - 51.8 °F 88% 29.34 in 10.0 mi SSW 11.5 mph 18.4 mph N/A Rain Light Rain
3:15 PM 53.6 °F - 50.0 °F 88% 29.37 in 5.0 mi SW 11.5 mph 24.2 mph 0.01 in   Overcast
3:35 PM 51.8 °F - 46.4 °F 82% 29.37 in 10.0 mi SW 8.1 mph 18.4 mph 0.01 in   Light Drizzle
3:55 PM 50.0 °F - 44.6 °F 82% 29.36 in 6.0 mi WSW 8.1 mph 16.1 mph 0.01 in   Light Drizzle
4:15 PM 48.2 °F - 44.6 °F 87% 29.34 in 7.0 mi SW 5.8 mph - N/A   Mostly Cloudy
4:35 PM 48.2 °F - 44.6 °F 87% 29.37 in 10.0 mi SSW 5.8 mph - N/A   Overcast
4:55 PM 46.4 °F 43.5 °F 44.6 °F 93% 29.37 in 10.0 mi SW 5.8 mph - N/A Rain Light Rain
5:15 PM 46.4 °F 42.9 °F 44.6 °F 93% 29.37 in 10.0 mi SSW 6.9 mph - N/A Rain Light Rain
5:35 PM 46.4 °F 41.9 °F 44.6 °F 93% 29.38 in 8.0 mi SSW 9.2 mph - 0.01 in Rain Light Rain
5:55 PM 44.6 °F 40.7 °F 42.8 °F 93% 29.37 in 10.0 mi SW 6.9 mph 17.3 mph 0.01 in Rain Light Rain
6:15 PM 44.6 °F 40.7 °F 42.8 °F 93% 29.38 in 10.0 mi WSW 6.9 mph - N/A Rain Light Rain
6:35 PM 39.2 °F 32.0 °F 35.6 °F 87% 29.41 in 10.0 mi West 11.5 mph 23.0 mph N/A   Light Drizzle
6:55 PM 37.4 °F 31.4 °F 33.8 °F 87% 29.42 in 10.0 mi West 8.1 mph - N/A Rain Light Rain
7:15 PM 35.6 °F 28.0 °F 32.0 °F 87% 29.43 in 10.0 mi West 10.4 mph 17.3 mph N/A   Mostly Cloudy
7:35 PM 35.6 °F 29.2 °F 32.0 °F 87% 29.44 in 10.0 mi WSW 8.1 mph 18.4 mph N/A   Mostly Cloudy
7:55 PM 35.6 °F 28.6 °F 32.0 °F 87% 29.43 in 10.0 mi West 9.2 mph - N/A   Mostly Cloudy
8:15 PM 35.6 °F 27.5 °F 28.4 °F 75% 29.45 in 10.0 mi West 11.5 mph 19.6 mph N/A   Overcast
8:35 PM 35.6 °F 27.1 °F 28.4 °F 75% 29.45 in 10.0 mi West 12.7 mph 21.9 mph N/A   Overcast
8:55 PM 33.8 °F 27.0 °F 26.6 °F 75% 29.46 in 10.0 mi West 8.1 mph 17.3 mph N/A   Mostly Cloudy
9:15 PM 33.8 °F 23.9 °F 23.0 °F 65% 29.47 in 10.0 mi West 15.0 mph 23.0 mph N/A   Mostly Cloudy
9:35 PM 33.8 °F 25.8 °F 21.2 °F 60% 29.48 in 10.0 mi West 10.4 mph 21.9 mph N/A   Mostly Cloudy
9:55 PM 32.0 °F 22.5 °F 21.2 °F 64% 29.49 in 10.0 mi West 12.7 mph 24.2 mph N/A   Clear
10:15 PM 32.0 °F 22.5 °F 19.4 °F 60% 29.50 in 10.0 mi West 12.7 mph 23.0 mph N/A   Clear
10:35 PM 32.0 °F 24.2 °F 21.2 °F 64% 29.50 in 10.0 mi West 9.2 mph 18.4 mph N/A   Clear
10:55 PM 32.0 °F 23.6 °F 19.4 °F 60% 29.51 in 10.0 mi West 10.4 mph 19.6 mph N/A   Clear
11:15 PM 32.0 °F 23.0 °F 21.2 °F 64% 29.52 in 10.0 mi WSW 11.5 mph 21.9 mph N/A   Clear
11:35 PM 32.0 °F 24.8 °F 19.4 °F 60% 29.52 in 10.0 mi WSW 8.1 mph 17.3 mph N/A   Clear
11:55 PM 32.0 °F 25.6 °F 19.4 °F 60% 29.52 in 10.0 mi WSW 6.9 mph 17.3 mph N/A   Clear